Wind_Speed
11 16 17 10 13 16 14 10 8 8 5 2 4 9 12 13 13 14 19 21 18 14 14 22 24 21 21 21 19 18 16 14 13
9 12 12 12 16 18 17 14 9 5 6 5 3 4 8 12 12 10 14 22 21 18 18 21 22 23 22 20 17 18 17 16 14
14 15 13 16 20 20 18 15 12 11 9 8 7 6 5 9 11 11 12 19 24 23 21 21 23 23 21 21 21 17 16 16 15
14 15 14 15 20 20 17 17 16 13 13 14 10 8 8 8 10 12 11 13 18 23 24 25 24 24 21 18 20 19 17 17 15
11 13 14 17 20 22 20 21 18 15 15 14 14 13 13 11 12 13 14 12 14 17 22 24 24 24 22 19 19 21 20 19 18
13 12 13 15 19 24 24 23 21 19 17 14 15 16 17 16 14 13 14 15 15 16 18 21 23 23 22 22 20 21 21 21 20
8 12 15 16 13 10 16 26 23 20 19 18 18 19 19 19 17 14 15 17 17 16 17 19 20 20 20 22 22 21 21 21 20
11 12 12 15 14 10 10 17 23 23 21 22 22 23 20 20 20 17 18 18 18 18 17 17 18 19 20 22 22 20 20 19 19
18 21 18 17 18 16 15 17 21 24 24 24 24 24 22 20 22 21 19 18 18 18 17 18 19 19 20 20 21 21 21 20 20
26 27 27 24 22 22 20 22 22 21 25 25 23 23 23 21 23 24 21 21 18 18 17 18 18 20 20 19 20 20 19 19 19
27 28 28 28 27 27 26 25 22 19 20 22 21 23 24 24 23 26 24 23 20 17 18 18 18 19 19 20 19 18 18 19 21
24 21 20 20 23 27 28 26 23 22 21 20 22 22 24 24 25 26 26 24 23 20 19 18 18 19 19 19 18 18 19 22 23
9 10 8 8 10 14 23 25 25 24 26 28 29 29 27 27 27 27 29 28 27 25 23 22 22 21 21 20 20 22 23 25 27
35 31 22 17 21 19 18 17 13 14 17 27 29 32 31 31 30 29 30 31 30 29 28 27 26 25 25 25 26 27 28 29 30
41 45 44 28 27 22 19 17 15 14 15 16 27 27 27 31 32 31 25 31 32 32 33 32 32 31 31 32 32 32 31 29 30
22 23 23 29 33 37 30 24 25 26 25 22 21 25 33 37 33 29 31 26 29 38 36 35 35 36 37 35 36 34 35 34 32
19 21 26 27 30 34 33 28 26 30 31 27 26 24 28 33 25 30 40 30 50 23 17 33 43 40 36 33 33 33 37 38 38
25 26 25 25 22 22 27 30 26 22 24 24 24 25 25 26 29 25 41 40 36 27 31 39 26 26 26 26 33 33 44 48 48
33 31 30 32 31 28 26 26 25 29 27 24 21 20 20 22 24 23 25 32 30 26 27 28 28 29 28 26 28 36 40 37 51
45 41 37 38 36 34 35 35 32 28 27 26 26 24 25 24 25 32 33 34 36 35 33 31 31 30 27 28 30 33 30 23 10
Wind_Direction
217 207 200 203 214 207 210 195 202 207 198 172 192 209 212 221 231 233 221 218 221 211 205 199 207 211 215 220 223 231 236 235 235
188 199 195 189 195 199 213 213 204 190 199 211 215 216 225 222 226 231 224 215 213 213 210 207 206 212 217 222 224 225 232 236 244
179 187 192 191 193 201 209 206 210 208 227 222 226 246 238 232 229 229 224 216 216 221 221 222 219 217 224 232 233 231 229 235 238
182 198 204 202 203 205 209 209 211 219 234 235 248 241 252 251 237 234 237 231 223 222 221 223 224 227 228 231 228 227 227 229 235
192 195 204 214 215 214 216 217 221 230 230 247 252 244 246 252 248 240 234 233 232 228 227 228 230 232 232 230 229 226 230 233 243
215 220 217 218 224 228 224 223 225 230 238 236 245 246 246 248 255 253 240 233 233 232 232 233 233 233 232 231 232 231 234 240 247
248 238 235 219 222 230 238 231 228 223 226 234 237 246 244 247 252 254 245 235 235 235 234 233 235 235 234 231 233 237 239 246 249
238 206 210 210 212 222 237 234 231 227 230 238 241 245 245 239 240 245 244 243 242 241 239 238 238 237 233 232 234 238 240 244 252
234 218 214 215 221 227 233 227 228 229 235 245 244 246 253 237 232 240 241 243 245 243 243 241 238 237 238 236 236 237 242 249 255
231 235 237 236 232 232 237 232 229 231 236 246 243 240 244 245 231 234 238 239 243 245 242 240 239 239 240 241 241 242 244 246 250
239 239 238 233 233 235 235 230 224 226 235 240 236 235 238 242 232 229 237 241 242 243 242 239 235 234 235 236 236 236 236 241 248
241 234 235 236 236 235 231 219 222 222 227 230 234 236 239 243 235 227 232 241 241 239 237 235 235 234 230 229 230 234 240 247 257
204 206 226 268 291 269 242 230 226 230 237 234 235 235 236 236 236 229 230 233 236 232 228 228 229 231 234 236 238 244 251 260 270
269 273 279 282 282 279 275 264 256 245 245 246 241 238 239 235 233 229 228 231 232 234 230 228 229 233 236 242 248 253 257 265 273
235 254 262 275 276 276 265 257 269 266 253 261 249 243 239 237 235 229 228 228 235 236 236 235 233 234 239 243 249 256 262 261 267
241 241 251 251 273 278 281 255 278 286 276 273 261 250 245 246 240 251 249 233 238 230 235 239 241 241 243 249 253 257 260 265 266
256 256 259 265 274 273 272 276 270 276 276 273 276 275 269 264 268 258 246 271 281 269 265 240 241 243 245 251 258 268 280 279 275
259 256 259 260 256 252 260 265 257 258 259 265 272 281 282 278 272 266 236 256 247 258 259 264 272 276 259 263 271 272 272 282 265
257 255 257 254 255 256 252 253 259 259 264 269 270 268 262 266 264 250 241 243 248 255 259 257 258 266 269 266 271 264 276 268 272
258 255 252 251 254 255 254 255 255 258 265 266 262 258 257 252 249 245 245 247 252 252 259 258 257 257 256 258 268 266 258 254 246
Height
3164 3165 3168 3171 3174 3176 3178 3181 3182 3183 3183 3184 3184 3185 3186 3187 3188 3188 3189 3192 3194 3196 3197 3199 3203 3206 3209 3211 3213 3215 3217 3218 3220
3162 3164 3167 3170 3172 3174 3177 3179 3180 3181 3182 3183 3183 3183 3183 3184 3185 3186 3186 3189 3191 3194 3196 3198 3200 3203 3205 3207 3210 3212 3213 3216 3217
3161 3164 3166 3169 3171 3173 3176 3177 3178 3180 3180 3181 3182 3182 3182 3182 3183 3184 3184 3185 3188 3191 3193 3196 3198 3200 3202 3204 3206 3208 3211 3213 3214
3161 3163 3165 3167 3170 3172 3173 3175 3176 3177 3178 3179 3180 3181 3181 3181 3181 3182 3182 3183 3185 3187 3190 3192 3194 3197 3199 3201 3203 3206 3208 3210 3211
3161 3162 3164 3165 3167 3169 3171 3172 3174 3175 3175 3176 3177 3178 3179 3180 3179 3180 3180 3181 3182 3184 3186 3188 3191 3193 3196 3198 3200 3203 3205 3207 3208
3159 3160 3162 3163 3164 3165 3167 3169 3171 3172 3173 3174 3175 3175 3176 3177 3177 3178 3179 3179 3180 3181 3182 3184 3186 3189 3192 3194 3196 3198 3200 3203 3204
3156 3157 3159 3161 3162 3163 3163 3165 3167 3169 3170 3171 3171 3172 3173 3174 3175 3176 3177 3177 3178 3179 3179 3181 3183 3185 3187 3190 3192 3193 3196 3198 3199
3153 3153 3154 3156 3158 3159 3160 3161 3163 3165 3166 3166 3167 3168 3169 3171 3173 3174 3174 3175 3175 3176 3177 3178 3180 3182 3183 3185 3188 3190 3192 3194 3195
3150 3150 3151 3152 3153 3154 3155 3157 3158 3160 3161 3161 3162 3164 3166 3167 3168 3169 3171 3172 3173 3174 3175 3176 3178 3179 3181 3183 3185 3187 3189 3190 3191
3143 3145 3147 3148 3149 3150 3151 3153 3154 3155 3156 3156 3157 3159 3160 3162 3164 3166 3167 3168 3169 3170 3172 3173 3175 3177 3179 3181 3182 3184 3186 3187 3187
3137 3139 3140 3142 3143 3144 3146 3147 3148 3149 3150 3152 3152 3153 3155 3157 3159 3161 3163 3165 3166 3167 3169 3170 3172 3173 3175 3177 3179 3181 3182 3183 3183
3132 3132 3134 3134 3135 3137 3139 3140 3142 3144 3145 3146 3148 3149 3150 3152 3153 3155 3157 3159 3161 3163 3164 3166 3168 3169 3171 3173 3176 3178 3179 3179 3179
3126 3126 3126 3128 3129 3130 3132 3133 3135 3137 3139 3139 3140 3141 3143 3145 3147 3148 3150 3152 3154 3155 3157 3160 3162 3165 3168 3171 3173 3174 3175 3175 3175
3120 3122 3123 3123 3126 3127 3128 3128 3128 3129 3130 3132 3135 3137 3138 3139 3140 3142 3144 3147 3150 3152 3152 3152 3154 3158 3161 3164 3167 3168 3169 3169 3169
3114 3116 3115 3116 3121 3123 3125 3123 3123 3123 3124 3127 3130 3134 3136 3135 3135 3134 3137 3143 3146 3146 3146 3147 3146 3148 3152 3155 3157 3159 3160 3160 3160
3106 3107 3110 3114 3117 3118 3116 3114 3118 3119 3118 3119 3122 3124 3129 3131 3129 3130 3132 3127 3131 3135 3134 3136 3137 3137 3139 3146 3149 3151 3151 3152 3151
3100 3102 3103 3105 3106 3107 3109 3110 3112 3113 3112 3112 3113 3116 3117 3118 3121 3121 3124 3121 3097 3088 3102 3119 3118 3124 3130 3130 3141 3144 3146 3145 3144
3096 3096 3096 3096 3097 3098 3099 3100 3105 3105 3105 3104 3104 3105 3108 3108 3110 3110 3114 3118 3118 3116 3115 3108 3102 3104 3123 3123 3129 3134 3135 3135 3130
3087 3088 3088 3089 3090 3091 3092 3094 3094 3095 3098 3097 3095 3097 3099 3100 3100 3102 3104 3107 3110 3111 3112 3110 3109 3112 3113 3117 3123 3124 3124 3123 3119
3073 3076 3078 3079 3081 3082 3083 3084 3086 3087 3087 3087 3089 3091 3092 3093 3094 3094 3096 3098 3100 3103 3105 3105 3108 3109 3110 3113 3115 3114 3114 3114 3106